Retour au catalogue

DELTA 1 DEB

ActifLEO
NORAD 20012·DEBRIS·🇺🇸 United States

Lancé Jul 29, 1976 depuis Vandenberg Space Force Base

Loading…

Prochains Passages (prochaines 24 heures)

TLE

FraisSource: Space-Track

Époque: Sep 13, 2026, 04:11 UTC

1 20012U 76077FM  26256.17470281  .00000703  00000-0  27364-2 0  9997
2 20012 102.1066 333.3596 0086041 175.8541 212.9044 12.92722129602316

Suivez DELTA 1 DEB en temps réel avec AllMySat

Download on the App Store